Powrót do katalogu

STARLINK-37463

AktywnyŁącznośćSSO
NORAD 68854·PAYLOAD·🇺🇸 United States

Wystrzelony Apr 26, 2026 z Vandenberg Space Force Base

Loading…

Następne Przeloty (najbliższe 24 godziny)

TLE

ŚwieżeSource: CelesTrak SupGP

Epoka: Sep 14, 2026, 21:01 UTC

1 68854C 26094R   26257.87618056  .00028858  00000+0  89593-3 0  2579
2 68854  97.2838 271.1024 0001417  90.6012  37.9958 15.33420721    18

Śledź STARLINK-37463 w czasie rzeczywistym z AllMySat

Download on the App Store